Temperature
21 21 21 21 20 20 20 20 20 19 19 19 19 19 19 19 19 19 19 19 19 19 19 19 19 19 19 19 19 19 19 19 19 19 19 19 19 19 19 19 18 18 18
22 21 21 21 20 20 20 20 20 19 19 19 19 19 19 19 19 19 19 19 19 19 19 19 19 19 19 19 19 19 19 19 19 19 19 19 19 19 19 18 18 18 18
22 21 21 21 20 20 20 19 19 19 19 19 19 19 19 19 19 19 19 19 19 19 19 19 19 19 19 19 19 19 19 19 19 19 19 18 19 19 19 18 18 18 18
22 21 21 20 20 20 20 20 19 19 19 19 19 19 19 19 19 19 19 19 19 19 19 19 19 19 19 19 19 19 19 19 19 19 18 18 18 18 18 18 18 18 18
22 21 21 21 20 20 20 20 19 19 19 19 19 19 19 19 19 19 19 19 19 19 19 19 19 19 19 19 19 19 19 19 19 18 18 18 18 18 18 18 18 18 18
22 21 21 21 20 20 20 20 19 19 19 19 19 19 19 19 19 19 19 19 19 19 19 19 19 19 19 19 19 19 19 19 19 18 18 18 18 19 18 18 18 18 18
22 21 21 21 20 20 20 20 20 19 19 19 19 19 19 19 19 19 19 19 19 19 19 19 19 19 19 19 19 19 19 19 19 19 18 18 19 19 19 18 18 18 18
22 21 21 21 21 20 20 20 20 19 19 19 19 19 19 19 19 19 19 19 19 19 19 19 19 19 19 19 19 19 19 19 19 18 19 19 19 19 18 18 18 18 18
22 22 21 21 21 20 20 20 20 20 20 19 19 19 19 19 19 19 19 19 19 19 19 19 19 19 19 19 19 19 19 19 19 19 18 18 19 18 18 18 18 18 18
22 22 21 21 21 20 20 20 20 20 20 19 19 19 19 19 19 19 19 19 19 19 19 19 19 19 19 19 19 19 19 19 19 19 18 18 18 18 18 18 18 18 18
22 22 21 21 21 20 20 20 20 20 20 19 19 19 19 19 19 19 19 19 19 19 19 19 19 19 19 19 19 19 19 19 19 18 18 19 18 18 18 18 18 18 18
22 22 21 21 21 20 20 20 20 19 19 19 19 19 19 19 19 19 19 19 19 19 19 19 19 19 19 19 19 19 19 19 19 19 19 18 18 18 18 18 18 18 18
22 21 21 21 21 20 20 20 20 20 20 19 19 19 19 19 19 19 19 19 19 19 19 19 19 19 19 19 19 19 19 19 19 19 19 18 19 18 18 18 18 18 18
22 21 21 21 20 20 20 20 20 20 20 20 19 19 19 19 19 19 19 19 19 19 19 19 19 19 19 19 19 19 19 19 19 19 19 19 19 18 18 18 18 18 18
22 21 21 20 20 20 20 20 20 20 20 19 19 19 19 19 19 19 19 19 19 19 19 19 19 19 19 19 19 19 19 19 19 19 19 19 19 18 18 18 18 18 18
22 21 21 20 20 20 20 20 20 19 19 19 19 19 19 19 19 19 19 19 19 19 19 19 19 19 19 19 19 19 19 19 19 19 19 19 18 18 18 18 18 18 18
22 21 21 20 20 20 20 19 19 19 19 19 19 19 19 18 18 18 18 18 18 19 19 19 19 19 19 19 19 19 19 19 19 19 19 18 18 18 18 18 18 18 18
22 21 21 20 20 20 20 19 19 19 19 19 19 19 19 18 18 18 18 18 18 18 19 19 19 19 19 19 19 19 19 19 19 19 19 18 18 18 18 18 18 18 18
22 21 20 20 20 20 19 19 19 19 19 19 19 19 19 18 18 18 18 18 18 18 18 18 18 18 19 19 19 19 19 19 19 19 19 18 18 18 18 18 18 18 18
21 21 20 20 20 20 19 19 19 19 19 19 19 19 19 18 18 18 18 18 18 18 18 18 18 18 18 18 19 19 19 19 19 19 19 18 18 18 18 18 18 18 18
21 21 20 20 20 19 19 19 19 19 19 19 19 19 19 18 18 18 18 18 18 18 18 18 18 18 18 18 18 19 19 19 19 19 19 18 18 18 18 18 18 17 17
21 21 20 20 20 19 19 19 19 19 19 19 19 19 19 19 18 18 18 18 18 18 18 18 18 18 18 18 18 18 18 19 19 19 18 18 18 18 18 17 18 17 17
21 21 20 20 20 20 19 19 19 19 19 19 19 19 18 18 18 18 18 18 18 18 18 18 18 18 18 18 18 18 18 18 18 18 18 18 18 18 18 18 18 17 17
21 21 20 20 20 20 19 19 19 19 19 19 18 18 18 18 18 18 18 18 18 18 18 18 18 18 18 18 18 18 18 18 18 18 18 18 18 18 18 17 17 17 17
21 21 20 20 20 20 19 19 19 19 19 18 18 18 18 18 18 18 18 18 18 18 18 18 17 18 17 17 18 18 18 18 18 18 17 17 17 17 17 17 17 17 17
22 21 20 20 19 19 19 19 19 19 19 18 18 18 18 18 18 18 18 18 18 18 18 18 17 17 17 17 17 17 17 17 18 18 17 17 17 17 17 17 17 17 17
Wind_Speed
10 11 11 10 9 8 7 6 6 6 6 6 7 7 7 7 7 7 7 7 8 8 8 7 6 6 6 6 5 5 6 6 5 5 6 6 6 7 7 7 7 7 8
11 12 12 10 9 8 7 6 6 6 6 6 6 6 7 7 7 7 7 7 7 7 7 7 7 6 6 6 5 5 6 6 6 6 7 7 7 8 7 7 6 6 8
10 12 11 10 9 8 7 6 6 6 6 6 6 7 7 7 7 7 7 7 7 6 7 7 7 6 6 6 6 6 6 7 7 7 8 7 8 9 8 8 7 7 8
9 10 10 10 9 8 7 6 6 6 6 5 6 7 7 7 7 6 7 7 6 6 6 6 6 6 6 6 6 6 7 7 8 8 8 7 8 10 11 9 8 8 9
10 11 12 11 9 8 7 6 6 6 6 6 6 7 7 7 6 7 7 7 6 5 5 6 6 6 7 6 6 7 7 7 9 9 6 6 7 10 11 10 9 9 9
10 12 12 11 9 8 7 7 6 6 6 7 7 7 7 7 7 7 7 6 6 5 5 5 6 7 7 7 7 7 7 7 7 8 7 6 7 10 10 10 10 9 10
11 11 12 11 9 7 7 8 7 7 7 7 7 7 7 7 7 7 6 6 6 6 5 5 6 6 7 8 8 8 8 8 7 5 4 5 8 11 11 10 10 9 9
10 10 11 11 9 8 8 9 9 8 7 7 7 7 6 7 7 7 6 6 6 6 5 5 5 6 7 8 8 9 9 9 7 6 5 6 9 11 11 11 10 9 9
9 9 9 9 9 9 11 11 10 9 8 8 8 7 7 7 7 8 7 7 7 6 5 6 6 7 7 8 9 10 10 10 7 5 6 7 10 11 11 11 10 10 10
7 7 7 7 8 9 10 11 11 11 9 9 8 7 7 6 8 9 9 8 7 6 6 6 6 7 8 9 10 11 10 9 7 6 6 8 11 11 11 11 10 10 10
7 6 5 5 5 6 7 10 11 11 10 8 7 7 6 4 5 7 7 9 9 8 7 7 7 8 8 9 11 11 9 7 5 5 6 10 11 11 11 11 10 10 10
6 6 6 5 5 5 5 7 6 6 7 6 4 5 4 3 3 4 8 9 9 8 8 8 8 7 8 6 7 9 6 7 5 5 7 11 11 11 11 10 10 10 10
6 7 7 7 6 6 5 4 3 4 4 5 5 3 3 2 2 3 4 5 6 6 5 5 6 6 5 4 3 4 5 4 3 5 8 12 11 11 10 10 10 10 9
6 8 8 7 6 6 6 4 4 3 3 3 4 3 2 2 2 2 2 1 2 2 2 2 2 3 3 3 2 2 3 3 3 5 8 11 11 11 10 9 10 10 9
6 7 8 7 7 6 5 3 4 4 3 4 4 4 3 2 2 2 2 1 1 1 1 1 2 2 2 2 3 4 4 3 3 4 6 10 11 11 10 10 10 10 10
6 6 7 6 7 6 5 3 3 3 3 3 4 4 3 3 2 1 1 1 0 0 1 1 1 0 1 1 2 2 3 3 3 4 6 8 9 10 11 10 10 10 10
6 6 6 6 7 6 4 2 3 3 4 4 4 4 3 3 2 1 1 1 1 1 0 0 1 0 1 1 1 2 2 2 3 3 4 5 7 8 10 10 10 10 10
7 7 5 5 7 6 4 2 3 3 4 3 4 4 3 3 2 1 1 1 1 1 1 0 0 1 1 1 1 1 1 2 3 3 3 4 4 5 7 10 9 9 9
8 7 6 6 7 5 4 3 2 3 3 3 4 3 2 3 3 1 2 1 1 1 1 2 2 2 1 1 1 2 2 2 2 3 3 3 4 4 5 8 9 8 8
8 7 7 6 6 4 4 3 3 4 3 3 3 3 3 2 3 2 1 1 1 1 2 2 2 2 1 1 2 1 1 2 2 2 2 2 2 4 5 6 7 6 6
8 7 6 5 4 3 3 2 2 2 2 3 3 3 3 2 2 1 2 1 1 1 1 2 2 2 1 1 1 1 1 2 2 2 2 1 1 2 4 6 6 5 4
8 7 7 6 4 3 3 2 2 2 2 3 3 3 3 3 2 2 3 2 1 1 1 2 2 2 2 1 1 1 1 1 1 0 1 1 1 1 2 3 4 5 5
8 7 6 5 4 3 3 3 2 3 2 3 3 2 2 2 3 3 2 2 2 1 1 1 1 2 2 2 1 1 1 1 1 1 1 0 0 1 1 2 3 4 4
9 8 7 6 5 4 3 3 3 3 2 2 2 2 2 2 2 2 2 2 2 2 2 3 2 2 2 3 2 2 1 1 1 1 1 1 1 1 1 1 2 4 5
10 9 8 7 5 4 3 2 2 2 2 2 2 3 2 1 2 2 2 2 2 2 3 3 3 3 2 3 3 3 2 2 0 1 1 1 1 1 0 0 1 3 4
9 9 8 7 6 5 4 3 2 2 1 2 2 2 1 1 2 2 2 3 3 2 3 3 3 3 3 3 3 2 2 2 1 1 2 1 1 1 1 1 1 2 3
Wind_Direction
98 107 118 114 111 109 108 109 113 121 123 124 128 128 129 128 127 126 123 125 128 133 136 142 147 150 148 143 140 140 146 150 151 159 160 154 150 148 152 159 166 163 160
107 114 120 117 116 114 112 113 116 123 127 129 134 136 138 138 135 132 132 133 134 138 142 149 155 160 157 153 150 153 162 167 172 176 175 170 164 163 167 173 172 163 159
110 120 123 123 120 119 118 118 121 125 130 140 146 144 144 144 143 142 140 140 145 149 151 153 160 167 166 167 167 171 177 183 186 190 190 187 174 174 177 178 173 172 166
111 119 122 126 125 125 124 121 122 126 128 136 150 153 149 146 147 148 148 149 152 158 164 165 169 174 175 179 184 184 188 197 202 206 201 190 183 177 177 179 178 179 176
101 109 121 129 129 129 133 134 133 131 129 127 136 149 150 147 147 148 152 153 154 158 166 175 179 179 182 189 197 199 200 208 217 220 205 178 168 168 173 177 181 183 183
103 110 123 133 136 142 146 149 146 137 129 125 130 140 146 149 147 148 154 160 162 159 165 178 188 189 190 196 206 210 213 218 224 223 198 171 163 168 172 174 178 183 187
104 113 129 140 143 147 153 156 149 142 137 135 135 140 147 152 152 155 161 166 169 170 177 186 196 200 203 206 214 219 223 229 232 226 173 155 161 169 173 176 179 184 190
95 108 125 143 146 147 147 151 150 145 143 141 141 146 154 159 167 169 168 165 168 177 187 194 197 199 207 215 222 225 228 232 228 219 171 161 169 173 175 178 180 184 191
92 113 130 140 149 150 148 150 153 154 153 152 151 158 165 173 178 177 169 164 167 171 182 195 202 208 215 221 224 225 228 228 238 226 181 164 171 175 176 178 181 187 193
79 94 115 130 143 155 155 154 158 161 165 166 166 169 175 183 182 180 170 164 167 174 184 193 203 210 219 225 227 229 230 233 225 207 171 173 176 178 181 184 186 192 196
67 71 82 100 121 132 142 151 163 167 171 174 176 179 182 178 178 178 166 164 174 182 190 198 210 217 224 229 229 228 230 225 200 186 169 173 177 179 184 191 196 198 201
66 67 70 71 67 86 97 132 154 150 153 157 142 158 166 174 172 154 158 170 181 190 197 207 221 225 227 225 222 219 221 209 194 168 165 173 179 181 187 193 200 203 206
70 67 77 84 68 60 67 94 112 116 134 133 126 140 141 137 131 129 154 168 186 189 199 202 215 217 217 214 203 207 212 199 181 155 162 169 176 183 190 196 201 205 209
77 73 74 77 75 64 60 65 91 98 107 111 113 103 98 99 74 89 106 134 166 175 176 186 215 211 223 218 203 221 218 199 156 146 161 171 176 184 191 196 201 207 212
80 76 76 74 70 62 64 52 82 81 79 95 101 101 85 91 79 70 70 49 21 82 125 288 262 236 215 216 210 208 207 190 162 155 151 170 175 184 193 201 205 208 212
95 87 87 89 91 76 69 58 75 92 104 97 95 88 81 83 77 62 77 92 27 33 110 231 283 302 249 222 220 226 210 189 154 143 152 169 183 190 196 201 205 210 213
101 93 102 111 102 95 83 55 69 68 85 88 92 89 79 68 79 75 99 58 8 344 333 256 341 305 235 234 220 232 185 182 155 156 160 166 177 194 203 202 204 209 215
103 95 89 98 102 104 99 79 63 67 73 84 91 89 83 69 77 77 86 48 4 336 316 282 352 309 281 258 238 251 168 151 152 161 171 171 171 182 194 202 207 210 215
102 100 94 88 100 105 113 109 99 89 76 82 86 85 82 78 72 59 81 59 339 21 357 350 28 7 350 307 264 222 186 184 178 192 171 168 175 172 170 184 195 205 211
110 106 103 100 98 106 107 108 100 92 86 79 81 74 77 75 70 39 87 64 11 49 11 0 2 351 309 266 288 321 196 191 184 186 178 169 167 180 171 165 173 193 202
112 112 111 109 107 108 107 108 107 104 105 98 93 83 72 60 55 51 42 38 354 74 34 349 359 338 311 272 324 330 277 209 188 182 181 157 187 165 143 143 151 158 162
123 121 117 116 114 112 116 120 128 115 107 99 77 75 61 52 42 53 47 15 1 25 16 320 325 323 312 314 316 320 325 319 352 257 127 160 221 129 120 151 137 139 149
131 128 125 123 122 121 113 120 106 95 82 82 88 81 52 47 48 32 47 24 -0 8 355 297 333 313 309 314 310 301 318 334 2 9 7 183 31 85 114 113 121 134 146
142 137 128 129 124 119 116 119 123 118 111 93 94 92 74 47 50 46 47 28 6 16 11 346 16 338 323 322 321 314 292 294 268 321 346 357 17 31 45 80 109 117 127
143 140 137 133 130 127 133 123 116 104 93 90 102 109 104 70 49 44 36 26 20 21 11 359 359 350 341 334 324 329 333 316 263 231 284 304 328 354 17 107 97 105 114
146 145 142 139 140 141 139 132 122 111 79 79 78 97 117 91 53 39 50 28 23 11 7 354 345 354 354 345 326 323 318 316 288 255 249 254 268 294 339 78 96 97 101
Height
1482 1481 1481 1481 1481 1482 1482 1483 1484 1485 1486 1488 1489 1491 1492 1494 1496 1498 1500 1502 1504 1505 1507 1508 1510 1512 1513 1515 1516 1518 1519 1521 1522 1523 1525 1526 1528 1529 1530 1531 1533 1534 1536
1482 1481 1481 1481 1481 1482 1482 1483 1484 1485 1486 1488 1489 1491 1493 1494 1496 1498 1500 1502 1503 1505 1507 1508 1510 1511 1513 1514 1516 1517 1519 1520 1521 1523 1524 1526 1527 1528 1530 1531 1533 1534 1535
1481 1481 1481 1481 1481 1482 1482 1483 1484 1485 1486 1487 1488 1490 1492 1494 1496 1498 1500 1502 1503 1505 1507 1508 1510 1511 1513 1514 1516 1517 1518 1520 1521 1522 1524 1525 1527 1528 1529 1531 1532 1533 1534
1481 1480 1480 1481 1481 1482 1482 1483 1484 1484 1485 1485 1487 1489 1492 1494 1496 1498 1500 1502 1503 1505 1507 1508 1509 1511 1512 1514 1515 1516 1518 1519 1520 1522 1523 1524 1526 1527 1529 1530 1531 1533 1534
1481 1480 1480 1481 1481 1481 1482 1483 1484 1484 1485 1485 1486 1488 1491 1494 1496 1498 1500 1502 1503 1505 1506 1508 1509 1511 1512 1513 1515 1516 1517 1518 1519 1521 1523 1524 1525 1527 1528 1529 1530 1532 1533
1482 1481 1480 1481 1481 1481 1481 1482 1483 1484 1485 1486 1487 1489 1491 1494 1496 1498 1500 1502 1503 1505 1506 1507 1509 1510 1511 1513 1514 1515 1516 1517 1519 1520 1522 1523 1524 1525 1527 1528 1529 1530 1532
1483 1482 1481 1481 1481 1479 1478 1480 1483 1485 1486 1487 1489 1490 1492 1494 1496 1498 1500 1502 1503 1505 1506 1507 1508 1509 1511 1512 1514 1515 1515 1516 1517 1519 1521 1522 1523 1525 1526 1527 1528 1529 1531
1484 1483 1483 1482 1481 1478 1476 1478 1483 1485 1487 1489 1490 1492 1494 1495 1497 1499 1501 1502 1503 1504 1505 1507 1508 1509 1510 1511 1513 1514 1515 1515 1516 1518 1519 1520 1522 1523 1525 1526 1527 1528 1530
1485 1484 1483 1483 1482 1480 1479 1481 1484 1486 1488 1490 1492 1493 1495 1497 1498 1500 1501 1502 1503 1504 1505 1506 1507 1508 1509 1510 1512 1513 1513 1514 1515 1516 1517 1519 1520 1522 1523 1524 1525 1527 1528
1486 1485 1485 1484 1483 1482 1482 1484 1486 1488 1490 1491 1493 1494 1496 1497 1499 1500 1501 1502 1504 1504 1505 1506 1507 1507 1509 1510 1511 1512 1512 1513 1513 1515 1515 1517 1519 1520 1521 1522 1524 1525 1526
1487 1486 1485 1485 1484 1485 1485 1485 1487 1489 1491 1493 1494 1495 1497 1498 1500 1501 1502 1503 1504 1504 1505 1506 1506 1507 1508 1509 1510 1511 1511 1511 1512 1513 1514 1515 1517 1518 1519 1521 1522 1523 1524
1487 1486 1485 1485 1486 1486 1486 1486 1488 1491 1492 1494 1495 1496 1498 1499 1501 1502 1502 1503 1504 1504 1505 1506 1506 1507 1507 1508 1509 1510 1510 1510 1511 1511 1512 1514 1515 1516 1517 1518 1519 1520 1521
1488 1486 1485 1486 1487 1487 1487 1488 1490 1492 1494 1495 1496 1497 1499 1500 1501 1502 1502 1503 1503 1504 1505 1505 1506 1506 1506 1507 1508 1508 1508 1509 1510 1510 1511 1512 1513 1514 1515 1516 1517 1517 1518
1490 1488 1487 1488 1488 1489 1489 1490 1492 1493 1495 1496 1497 1498 1499 1500 1501 1502 1503 1503 1503 1504 1504 1504 1505 1505 1505 1506 1507 1507 1507 1509 1509 1509 1510 1511 1512 1513 1513 1514 1514 1515 1516
1491 1490 1490 1490 1490 1491 1491 1493 1494 1495 1497 1497 1498 1499 1500 1500 1501 1502 1502 1503 1503 1504 1504 1503 1504 1504 1504 1505 1505 1506 1507 1508 1508 1508 1509 1509 1510 1511 1511 1511 1512 1512 1513
1492 1492 1492 1492 1492 1492 1493 1494 1496 1497 1498 1499 1499 1500 1500 1501 1501 1502 1502 1503 1503 1503 1503 1503 1503 1503 1503 1504 1504 1505 1506 1506 1507 1507 1508 1508 1508 1509 1509 1509 1509 1509 1510
1493 1493 1493 1493 1493 1493 1494 1495 1497 1498 1499 1499 1500 1500 1501 1501 1501 1502 1503 1503 1503 1503 1503 1502 1502 1502 1502 1503 1503 1503 1504 1505 1505 1506 1506 1506 1506 1506 1506 1506 1506 1507 1507
1493 1493 1493 1494 1494 1495 1495 1497 1498 1498 1499 1500 1501 1501 1502 1502 1502 1502 1503 1503 1503 1503 1503 1502 1502 1501 1502 1502 1502 1503 1503 1504 1504 1504 1505 1505 1505 1505 1504 1504 1504 1504 1504
1493 1494 1494 1494 1495 1496 1497 1498 1498 1499 1500 1501 1502 1502 1502 1503 1503 1503 1503 1503 1503 1503 1503 1502 1502 1501 1501 1501 1501 1502 1502 1502 1503 1503 1504 1503 1503 1503 1502 1502 1502 1501 1501
1494 1494 1495 1495 1496 1497 1498 1498 1499 1500 1501 1502 1502 1502 1503 1503 1503 1503 1503 1503 1503 1503 1502 1502 1501 1501 1500 1500 1501 1501 1501 1501 1502 1502 1502 1502 1502 1501 1501 1500 1500 1500 1500
1494 1495 1495 1496 1496 1497 1498 1499 1500 1501 1502 1502 1503 1503 1503 1503 1503 1503 1503 1503 1503 1503 1503 1502 1501 1501 1500 1500 1500 1500 1500 1500 1500 1501 1501 1501 1501 1500 1499 1499 1499 1498 1498
1494 1495 1495 1496 1497 1498 1499 1500 1501 1501 1502 1503 1503 1503 1504 1504 1504 1504 1503 1503 1503 1503 1503 1502 1502 1501 1501 1500 1500 1500 1500 1501 1499 1500 1500 1500 1499 1500 1499 1499 1499 1498 1497
1494 1495 1496 1496 1497 1498 1499 1500 1501 1502 1503 1503 1504 1504 1504 1504 1504 1504 1504 1504 1503 1503 1503 1502 1502 1502 1501 1501 1501 1501 1500 1499 1499 1500 1499 1499 1499 1499 1499 1498 1497 1496 1496
1494 1494 1495 1496 1497 1498 1499 1500 1501 1502 1503 1504 1504 1504 1505 1505 1504 1504 1504 1504 1503 1503 1503 1502 1502 1502 1501 1501 1501 1501 1501 1500 1499 1499 1499 1499 1498 1498 1498 1498 1497 1497 1497
1493 1494 1495 1496 1497 1498 1499 1501 1502 1503 1504 1504 1505 1505 1505 1505 1505 1504 1504 1504 1503 1503 1503 1502 1502 1501 1501 1500 1500 1500 1499 1499 1499 1499 1498 1498 1498 1498 1497 1497 1497 1496 1496
1492 1493 1494 1495 1497 1498 1499 1500 1502 1503 1504 1504 1505 1505 1505 1505 1505 1504 1504 1503 1503 1502 1502 1502 1501 1500 1500 1500 1499 1499 1499 1498 1498 1497 1497 1497 1497 1497 1496 1496 1495 1495 1495